Location: Cardiff
(53.7833°N, 113.6000°W)
Time: 20:35:44
(UTC+00:00)

Oscar 19 - Pass Details

Date: 10 December 2023
Orbit: 771 x 789 km, 98.9° (Epoch: 04 March)

Event Time Altitude Azimuth Distance (km) Brightness Sun altitude
Rises 12:35:44 0° 16° (NNE) 3,278 14.0 -25.8°
Reaches altitude 10° 12:38:03 10° 17° (NNE) 2,348 13.2 -25.4°
Maximum altitude 12:43:15 85° 105° (ESE) 795 10.6 -24.7°
Drops below altitude 10° 12:48:26 10° 196° (SSW) 2,343 13.0 -23.9°
Sets 12:50:45 0° 197° (SSW) 3,269 13.8 -23.6°
